Pila Airport

Jump to: basic info | weather | runways | comments

Related pages: nearby airports | nearby navaids | notams | map

Basic information (top)

Codes: EPPI
Location: lon 53.169998, lat 16.712500, elev 259 ft / 79 m msl
Status: small_airport

Weather (top)

Current conditions for Poznań-Ławica Airport 45nm (84km) S (rec'd 2015/01/28 13:30Z):

EPPO 281330Z 21008KT 9999 BKN012 04/01 Q1008

Airport forecast for Poznań-Ławica Airport 45nm (84km) S (rec'd 2015/01/28 12:34Z):

TAF EPPO 281130Z 2812/2912 21009KT 9999 BKN022 
      TEMPO 2812/2815 BKN010 
      BECMG 2821/2824 BKN015 
      TEMPO 2823/2905 4000 RASN BKN005 BKN010 
      BECMG 2910/2912 BKN020

Runways (top)

03/21: 7,876 x 195 ft (2,401 x 59 m) — other (PEM) — lighted

Latest comments (top)

No comments yet for Pila Airport

More... (top)

See also NOTAMs and nearby airports and navaids, or visit the Pila Airport page at the main OurAirports website..